Flag Weather past 2 weeks in Stuhr, Lower Saxony, Germany

Now
39 °F

Partly sunny.


Feels Like: 32 °F
Forecast: 33 / 40 °F
Wind: 13 mph from Southeast

Location: Bremen Airport

Current Time: Nov 26, 2014 at 11:07:31 AM

Latest Report: Nov 26, 2014 at 10:20 AM


Visibility: N/A

Pressure: 30.15 "Hg

Humidity: 87%

Dew point: 36 °F

Location of StuhrLocation

Historic Weather in Stuhr — Graph

°F

Stuhr temperature yesterday

Maximum temperature yesterday: 43 °F (at 12:50 PM)
Minimum temperature yesterday: 32 °F (at 8:20 AM)
Average temperature yesterday: 39 °F

Past Weeks' High & Low Weather Summary

 TemperatureHumidityPressure
High54 °F (Nov 14, 12:20 PM)100% (Nov 11, 9:20 AM)30.39 "Hg (Nov 11, 9:20 AM)
Low30 °F (Nov 21, 6:20 AM)67% (Nov 24, 2:20 PM)29.50 "Hg (Nov 16, 2:20 PM)
Average46 °F90%29.97 "Hg
* Reported Nov 11 9:20 AM — Nov 26 9:50 AM, Stuhr, Weather by CustomWeather, © 2014

Note: Actual official high and low records may vary slightly from our data, if they occured in-between our weather recording intervals... More about our weather records

Advertising

Stuhr weather history for previous 24 hours

 ConditionsComfort  
Time TempWeatherWind HumidityBarometerVisibility
9:50 AM
Nov 26
39 °FPartly sunny.13 mph87%30.15 "HgN/A
9:20 AM37 °FLow clouds.13 mph93%30.15 "HgN/A
8:50 AM37 °FPartly sunny.9 mph93%30.15 "HgN/A
8:20 AM37 °FPartly sunny.13 mph93%30.15 "HgN/A
7:50 AM37 °FPassing clouds.15 mph87%30.18 "HgN/A
7:20 AM37 °FPassing clouds.14 mph93%30.18 "HgN/A
6:50 AM37 °FPassing clouds.13 mph93%30.18 "HgN/A
6:20 AM37 °FLow clouds.13 mph93%30.18 "HgN/A
5:50 AM37 °FLow clouds.14 mph100%30.18 "HgN/A
5:20 AM39 °FLow clouds.10 mph93%30.18 "HgN/A
4:20 AM37 °FPassing clouds.16 mph93%30.18 "HgN/A
3:50 AM39 °FPassing clouds.12 mph93%30.21 "HgN/A
3:20 AM39 °FPassing clouds.13 mph93%30.21 "HgN/A
2:50 AM39 °FPassing clouds.12 mph93%30.21 "HgN/A
2:20 AM41 °FPassing clouds.14 mph87%30.21 "HgN/A
1:50 AM41 °FPassing clouds.8 mph93%30.21 "HgN/A
1:20 AM41 °FPassing clouds.9 mph93%30.24 "HgN/A
12:50 AM41 °FPassing clouds.9 mph93%30.24 "HgN/A
12:20 AM41 °FPassing clouds.9 mph93%30.24 "HgN/A
11:50 PM
Nov 25
41 °FPassing clouds.9 mph93%30.27 "HgN/A
11:20 PM41 °FPassing clouds.9 mph93%30.27 "HgN/A
10:50 PM41 °FPassing clouds.9 mph93%30.27 "HgN/A
10:20 PM43 °FPassing clouds.10 mph87%30.27 "HgN/A
9:50 PM43 °FPassing clouds.9 mph87%30.27 "HgN/A
9:20 PM43 °FPassing clouds.8 mph93%30.27 "HgN/A
8:50 PM43 °FPassing clouds.7 mph93%30.30 "HgN/A
8:20 PM41 °FLow clouds.8 mph100%30.30 "Hg4 mi
7:50 PM41 °FFog.8 mph100%30.30 "Hg2 mi
7:20 PM41 °FFog.8 mph100%30.30 "Hg1 mi
6:50 PM41 °FFog.8 mph100%30.30 "Hg1 mi
6:20 PM39 °FFog.9 mph100%30.30 "Hg1 mi
5:50 PM41 °FFog.7 mph100%30.30 "Hg1 mi
5:20 PM41 °FFog.7 mph100%30.30 "Hg1 mi
4:50 PM41 °FFog.8 mph100%30.30 "Hg1 mi
4:20 PM41 °FFog.9 mph100%30.30 "Hg1 mi
3:50 PM41 °FFog.8 mph100%30.30 "Hg1 mi
3:20 PM41 °FFog.8 mph100%30.30 "Hg1 mi
2:50 PM43 °FFog.6 mph100%30.30 "Hg1 mi
2:20 PM43 °FFog.6 mph100%30.33 "Hg1 mi
1:50 PM43 °FFog.3 mph93%30.33 "Hg1 mi
1:20 PM41 °FFog.5 mph100%30.33 "Hg1 mi
12:50 PM43 °FFog.6 mph100%30.33 "Hg0 mi
12:20 PM41 °FFog.6 mph100%30.33 "Hg0 mi
11:50 AM41 °FFog.2 mph100%30.33 "Hg0 mi
11:20 AM41 °FFog.3 mph100%30.33 "Hg0 mi
Weather by CustomWeather, © 2014

See weather overviewHow to use our weather pages